Location: Burleson Alternative School
(32.5290°N, 97.3406°W)
Time: 00:51:43
(UTC+00:00)

A-11 Canister half - All Passes

Search period start: 05 November 2024 00:00
Search period end: 15 November 2024 00:00
Orbit: 1514 x 1685 km, 47.2° (Epoch: 04 November)

Date Brightness Start Highest point End Pass type
(mag) Time Alt. Az. Time Alt. Az. Time Alt. Az.
05 Nov - 08:52:32 10° SSW 09:01:21 37° SE 09:10:19 10° ENE visible
05 Nov - 10:55:50 10° WSW 11:05:55 74° NW 11:16:08 10° NE visible
05 Nov - 13:03:11 10° WNW 13:12:27 38° NNW 13:21:40 10° NE daylight
05 Nov - 15:10:41 10° NW 15:20:00 39° NNE 15:29:06 10° E daylight
05 Nov - 17:16:13 10° NW 17:26:20 79° NE 17:36:05 10° ESE daylight
05 Nov - 19:22:18 10° WNW 19:30:38 32° SW 19:38:44 10° S daylight
06 Nov - 08:29:48 10° S 08:38:23 34° SE 08:47:07 10° ENE visible
06 Nov - 10:32:45 10° WSW 10:42:51 77° NW 10:53:05 10° NE visible
06 Nov - 12:39:59 10° W 12:49:17 38° NNW 12:58:34 10° NE daylight
06 Nov - 14:47:34 10° NW 14:56:50 38° NNE 15:05:56 10° ENE daylight
06 Nov - 16:53:09 10° NW 17:03:17 75° NE 17:13:03 10° ESE daylight
06 Nov - 18:59:06 10° WNW 19:07:42 35° SW 19:16:03 10° S daylight
07 Nov - 08:07:06 10° S 08:15:26 32° SE 08:23:55 10° ENE visible
07 Nov - 10:09:42 10° SW 10:19:47 81° NW 10:30:03 10° NE visible
07 Nov - 12:16:46 10° W 12:26:07 39° NNW 12:35:28 10° NE visible
07 Nov - 14:24:26 10° NW 14:33:40 37° N 14:42:44 10° ENE daylight
07 Nov - 16:30:06 10° NW 16:40:14 72° NE 16:50:01 10° ESE daylight
07 Nov - 18:35:54 10° WNW 18:44:45 37° SW 18:53:20 10° SSE daylight
08 Nov - 07:44:25 10° S 07:52:29 29° SE 08:00:40 10° ENE visible
08 Nov - 09:46:40 10° SW 09:56:44 85° NW 10:06:59 10° NE visible
08 Nov - 11:53:34 10° W 12:02:57 40° NNW 12:12:23 10° NE visible
08 Nov - 14:01:17 10° NW 14:10:30 37° N 14:19:33 10° ENE daylight
08 Nov - 16:07:02 10° NW 16:17:09 68° NNE 16:26:57 10° ESE daylight
08 Nov - 18:12:44 10° WNW 18:21:48 41° SW 18:30:35 10° SSE daylight
09 Nov - 07:21:47 10° S 07:29:32 27° SE 07:37:24 10° ENE visible
09 Nov - 09:23:40 10° SW 09:33:41 89° NW 09:43:56 10° NE visible
09 Nov - 11:30:22 10° W 11:39:48 42° NNW 11:49:17 10° NE visible
09 Nov - 13:38:09 10° NW 13:47:19 36° N 13:56:22 10° ENE daylight
09 Nov - 15:43:59 10° NW 15:54:05 65° NNE 16:03:52 10° ESE daylight
09 Nov - 17:49:35 10° WNW 17:58:50 44° SW 18:07:48 10° SSE daylight
10 Nov - 06:59:12 10° S 07:06:35 24° SE 07:14:06 10° ENE visible
10 Nov - 09:00:39 10° SW 09:10:39 86° SE 09:20:53 10° NE visible
10 Nov - 11:07:11 10° W 11:16:38 43° NNW 11:26:12 10° NE visible
10 Nov - 13:15:01 10° WNW 13:24:09 36° N 13:33:11 10° ENE daylight
10 Nov - 15:20:56 10° NW 15:31:00 62° NNE 15:40:47 10° ESE daylight
10 Nov - 17:26:27 10° WNW 17:35:52 47° SW 17:45:01 10° SSE daylight
11 Nov - 06:36:40 10° S 06:43:39 22° SE 06:50:45 10° ENE visible
11 Nov - 08:37:40 10° SW 08:47:37 82° SE 08:57:49 10° NE visible
11 Nov - 10:43:59 10° W 10:53:29 44° NNW 11:03:06 10° NE visible
11 Nov - 12:51:51 10° WNW 13:00:57 35° N 13:09:59 10° ENE daylight
11 Nov - 14:57:52 10° NW 15:07:55 60° NNE 15:17:41 10° ESE daylight
11 Nov - 17:03:19 10° WNW 17:12:54 51° SW 17:22:11 10° SSE daylight
12 Nov - 06:14:11 10° SSE 06:20:43 20° ESE 06:27:22 10° E night (unlit)
12 Nov - 08:14:42 10° SW 08:24:35 78° SE 08:34:45 10° NE visible
12 Nov - 10:20:48 10° W 10:30:21 46° NNW 10:40:02 10° NE visible
12 Nov - 12:28:41 10° WNW 12:37:46 35° N 12:46:48 10° ENE visible
12 Nov - 14:34:49 10° NW 14:44:49 57° NNE 14:54:34 10° ESE daylight
12 Nov - 16:40:12 10° WNW 16:49:55 54° SW 16:59:20 10° SSE daylight
12 Nov - 18:52:36 10° WSW 18:53:20 10° WSW 18:54:04 10° SW daylight
13 Nov - 05:51:46 10° SSE 05:57:47 18° ESE 06:03:54 10° E night (unlit)
13 Nov - 07:51:45 10° SW 08:01:34 73° SE 08:11:41 10° NE visible
13 Nov - 09:57:38 10° W 10:07:12 47° NNW 10:16:57 10° NE visible
13 Nov - 12:05:31 10° WNW 12:14:35 35° N 12:23:37 10° ENE visible
13 Nov - 14:11:45 10° NW 14:21:43 55° NNE 14:31:26 10° ESE daylight
13 Nov - 16:17:05 10° WNW 16:26:56 58° SW 16:36:28 10° SSE daylight
13 Nov - 18:27:22 10° WSW 18:30:25 12° WSW 18:33:28 10° SW daylight
14 Nov - 05:29:27 10° SSE 05:34:52 16° ESE 05:40:21 10° E night (unlit)
14 Nov - 07:28:49 10° SW 07:38:33 69° SE 07:48:36 10° NE visible
14 Nov - 09:34:28 10° W 09:44:05 49° NNW 09:53:53 10° NE visible
14 Nov - 11:42:21 10° WNW 11:51:24 35° N 12:00:26 10° ENE visible
14 Nov - 13:48:41 10° NW 13:58:36 52° NNE 14:08:18 10° E daylight
14 Nov - 15:53:59 10° WNW 16:03:56 62° SW 16:13:34 10° SSE daylight
14 Nov - 18:03:17 10° W 18:07:30 13° WSW 18:11:41 10° SSW daylight
